Current weather by "City, St" or "zip code"  
 

Current Conditions: San Diego, Montgomery Field, CA

Fair


83.0 F

Last Updated on Oct 31 2020, 11:53 am PDT
Humidity: 19%
Wind Speed: 3.5 mph
Barometer 30.02 in
Dewpoint: 37.0 F
Visibility: 10.00 mi
Precip: --
Heat Index: 81 F
Wind Chill: NA
Current conditions at:

San Diego, Montgomery Field, CA (KMYF)

Lat: 32.81444 Lon: 117.13639

Local Radar Image active severe weather and emergency alerts image image weather storm and storm spotter reports image weather observation monitoring service image
Local
Radar
Active
Alerts
Storm Reports Obs
Monitoring

Sign-up For Email & Text Message Weather Alert Notification Services



Advertise Here

Observation History for San Diego, Montgomery Field, CA


Time Wind
(mph)
Vis
(mi)
Weather Precip (in) Temperature (F) Relative
Humidity
Wind
Chill
(F)
Heat
Index
(F)
Pressure
Air Dwpt altimeter
(in)
sea level
(mb)
Rmks
11:53 am PDT 3.5 10.00 Fair -- 83.0 37.0 19% NA 81 30.02 1016.0
10:53 am PDT N 0.0 10.00 Fair -- 77.0 37.0 24% NA NA 30.03 1016.6
9:53 am PDT N 0.0 10.00 Fair -- 69.0 35.1 29% NA NA 30.04 1016.8
8:53 am PDT E 3.5 10.00 Fair -- 66.0 39.0 37% NA NA 30.04 1016.7
7:53 am PDT E 3.5 10.00 Fair -- 55.0 42.1 62% NA NA 30.01 1016.1
6:53 am PDT N 0.0 10.00 Fair -- 55.0 39.9 57% NA NA 30.00 1015.5
5:53 am PDT N 0.0 10.00 Fair -- 55.0 43.0 64% NA NA 29.99 1015.2
4:53 am PDT N 0.0 10.00 Fair -- 55.0 45.0 69% NA NA 29.98 1014.9
3:53 am PDT N 0.0 7.00 Fair -- 56.0 48.9 77% NA NA 29.98 1014.7
2:53 am PDT N 0.0 6.00 Fair with Haze -- 58.0 51.1 78% NA NA 29.99 1015.0
1:53 am PDT SE 3.5 5.00 Fog/Mist -- 56.0 52.0 87% NA NA 29.99 1015.3
12:53 am PDT N 0.0 6.00 Fair with Haze -- 57.0 52.0 83% NA NA 29.99 1015.3
11:53 pm PDT N 0.0 8.00 Fair -- 59.0 52.0 78% NA NA 30.00 1015.4
10:53 pm PDT N 0.0 3.00 Fog/Mist -- 60.0 55.9 86% NA NA 30.01 1015.7
9:53 pm PDT N 0.0 6.00 Fair with Haze -- 62.0 55.9 80% NA NA 30.00 1015.4
8:53 pm PDT N 0.0 9.00 Fair -- 64.0 55.0 73% NA NA 29.98 1015.0
7:53 pm PDT N 0.0 10.00 Fair -- 66.0 55.0 68% NA NA 29.97 1014.7
6:53 pm PDT N 0.0 10.00 Fair -- 68.0 48.0 49% NA NA 29.95 1014.1
5:53 pm PDT W 3.5 10.00 Fair -- 72.0 46.9 41% NA NA 29.94 1013.5
4:53 pm PDT W 6.9 10.00 Fair -- 77.0 41.0 28% NA NA 29.93 1013.3
3:53 pm PDT NW 9.2 10.00 Fair -- 80.0 37.9 22% NA 79 29.92 1012.9
2:53 pm PDT NW 9.2 10.00 Fair -- 81.0 37.0 21% NA 79 29.93 1012.9
1:53 pm PDT SW 8.1 10.00 Fair -- 82.0 44.1 26% NA 80 29.94 1013.6
12:53 pm PDT SW 8.1 10.00 Fair -- 80.0 41.0 25% NA 79 29.97 1014.5

Regional Weather Observation


San Diego, Miramar MCAS/Mitscher Field Airport, CA (KNKX)

Fair
80.0 F

Oceanside, Oceanside Municipal Airport, CA (KOKB)

Fair
72.0 F

San Diego, Montgomery Field, CA (KMYF)

Fair
83.0 F

Oceanside, Camp Pendleton, Marine Corps Air Station, CA (KNFG)

A Few Clouds
81.0 F

Mcolf Camp Pendleton (Red Beach), CA (KNXF)

Mostly Cloudy
74.0 F

San Diego International Airport, CA (KSAN)

Mostly Cloudy
77.0 F